This is the latest recevied weather packets stored in our database for station/object KE4EST. If no packets are shown the sender has not sent any weather packets the latest 10 day(s).
| Time | Temp. | Humidity | Pressure | Rain* | Wind** | Luminosity | Snow |
|---|---|---|---|---|---|---|---|
| 1777452623 | 15.56° C | 99% | 1016.2 hPa | 3.05 mm | - | 0 W/m² | - |
| 1777452319 | 15.56° C | 99% | 1016.2 hPa | 1.27 mm | - | 0 W/m² | - |
| 1777452015 | 15.56° C | 99% | 1016.3 hPa | 1.78 mm | - | 0 W/m² | - |
| 1777451710 | 15.56° C | 99% | 1016.5 hPa | 3.05 mm | - | 0 W/m² | - |
| 1777451406 | 15.56° C | 99% | 1016.3 hPa | 3.05 mm | - | 0 W/m² | - |
| 1777451102 | 15.56° C | 99% | 1016.2 hPa | 1.78 mm | - | 0 W/m² | - |
| 1777450798 | 15.56° C | 99% | 1016.3 hPa | 1.78 mm | - | 0 W/m² | - |
| 1777450493 | 15.56° C | 99% | 1016.5 hPa | 1.27 mm | - | 0 W/m² | - |
| 1777450190 | 15.56° C | 99% | 1016.6 hPa | 1.27 mm | - | 0 W/m² | - |
| 1777449886 | 15.56° C | 99% | 1016.5 hPa | 1.78 mm | - | 0 W/m² | - |
| 1777449583 | 15.56° C | 99% | 1016.3 hPa | 1.78 mm | - | 0 W/m² | - |
| 1777449278 | 15.56° C | 99% | 1016.5 hPa | 1.27 mm | - | 0 W/m² | - |
| 1777448974 | 15.56° C | 99% | 1016.4 hPa | 1.27 mm | - | 0 W/m² | - |
| 1777448672 | 15.56° C | 99% | 1016.3 hPa | 0 mm | - | 0 W/m² | - |
| 1777448368 | 15.56° C | 99% | 1016.4 hPa | 0 mm | - | 0 W/m² | - |
| 1777448065 | 15.56° C | 99% | 1016.5 hPa | 0 mm | - | 0 W/m² | - |
| 1777447760 | 15.56° C | 99% | 1016.6 hPa | 0 mm | - | 0 W/m² | - |
| 1777447456 | 15.56° C | 99% | 1016.8 hPa | 0 mm | - | 0 W/m² | - |
| 1777447153 | 15.56° C | 99% | 1016.8 hPa | 0 mm | - | 0 W/m² | - |
| 1777446852 | 15.56° C | 99% | 1016.9 hPa | 0 mm | - | 0 W/m² | - |
| 1777446548 | 15.56° C | 99% | 1016.8 hPa | 0 mm | - | 0 W/m² | - |
| 1777446243 | 15.56° C | 99% | 1016.6 hPa | 0 mm | - | 0 W/m² | - |
| 1777445941 | 15.56° C | 99% | 1016.6 hPa | 0 mm | - | 0 W/m² | - |
| 1777445636 | 15.56° C | 99% | 1016.2 hPa | 0 mm | - | 0 W/m² | - |
| 1777445333 | 15.56° C | 99% | 1016.3 hPa | 0 mm | - | 0 W/m² | - |
* Rain latest hour (hover to see other rain measurements)
** Current wind speed in m/s (hover to see current wind gust speed)